Last 48 Hours

Stanford Met Tower

Hourly Data | America/Los_Angeles
as of 5/3/26 12:20 PM PDT
Date & Time Temp (°F) RH (%) Dew Pt (°F) Wind Dir (°) Wind Spd (mph) Wind Gust (mph) Solar Rad (W/m2) Pressure (mb) NowCast AQI Value (AQI) NowCast AQI Status Latest Rain (In) Daily Rain (In) Daily Min Temp (°F) Daily Max Temp (°F)
5/3/26 - 1200 61.4 63 49.6 WSW | 237 7.3 17.1 550 1,015.1 2 Good 0.00 0.00 53.6 62.9
5/3/26 - 1100 58.9 72 50.7 SW | 224 5.7 13.7 614 1,015.1 2 Good 0.00 0.00 53.6 61.6
5/3/26 - 1000 55.5 85 52.1 SW | 216 3.3 10.2 204 1,015.8 4 Good 0.00 0.00 53.6 57.2
5/3/26 - 0900 55.0 85 51.5 SSW | 197 2.6 7.0 170 1,015.6 5 Good 0.00 0.00 53.6 57.2
5/3/26 - 0800 54.4 84 50.5 SSW | 209 2.8 8.8 43 1,015.4 7 Good 0.00 0.00 53.6 55.2
5/3/26 - 0700 53.8 85 50.4 SE | 134 1.2 3.9 4 1,014.6 9 Good 0.00 0.00 53.6 55.2
5/3/26 - 0600 53.9 84 50.2 WSW | 239 1.4 3.4 0 1,014.0 11 Good 0.00 0.00 53.6 55.2
5/3/26 - 0500 54.5 80 49.4 WNW | 292 0.6 3.0 0 1,013.9 11 Good 0.00 0.00 54.1 55.2
5/3/26 - 0400 54.5 79 49.3 NW | 305 0.6 2.8 0 1,014.0 12 Good 0.00 0.00 54.3 55.0
5/3/26 - 0300 54.6 79 49.0 W | 266 1.2 5.0 0 1,014.0 12 Good 0.00 0.00 54.3 55.0
5/3/26 - 0200 54.5 78 48.8 WSW | 238 2.6 6.4 0 1,014.2 12 Good 0.00 0.00 54.3 55.0
5/3/26 - 0100 54.6 78 48.8 W | 264 3.1 6.3 0 1,014.7 13 Good 0.00 0.00 53.6 64.1
5/3/26 - 0000 54.7 77 48.6 WNW | 303 3.5 7.0 0 1,014.8 14 Good 0.00 0.00 53.6 64.1
5/2/26 - 2300 54.9 77 48.9 NW | 315 3.3 7.9 0 1,015.0 14 Good 0.00 0.00 53.6 64.1
5/2/26 - 2200 55.1 75 48.5 WNW | 303 5.0 10.7 0 1,015.2 18 Good 0.00 0.00 53.6 64.1
5/2/26 - 2100 55.9 74 48.8 NW | 319 4.6 9.2 0 1,014.7 19 Good 0.00 0.00 53.6 64.1
5/2/26 - 2000 57.4 71 49.0 NW | 322 5.3 11.0 23 1,014.0 21 Good 0.00 0.00 53.6 64.1
5/2/26 - 1900 59.6 70 50.7 W | 264 6.0 11.3 137 1,013.4 21 Good 0.00 0.00 53.6 64.1
5/2/26 - 1800 62.0 69 52.5 WSW | 240 6.9 11.7 362 1,013.3 22 Good 0.00 0.00 53.6 64.1
5/2/26 - 1700 62.9 67 52.7 SW | 226 6.7 12.1 394 1,013.3 21 Good 0.00 0.00 53.6 64.1
5/2/26 - 1600 62.8 67 52.9 SW | 233 7.5 13.0 475 1,013.8 19 Good 0.00 0.00 53.6 63.8
5/2/26 - 1500 62.4 69 53.0 WSW | 238 6.6 13.3 437 1,014.6 14 Good 0.00 0.00 53.6 63.4
5/2/26 - 1400 61.5 70 52.6 SW | 235 7.5 14.0 580 1,015.0 12 Good 0.00 0.00 53.6 63.0
5/2/26 - 1300 59.5 74 52.2 WSW | 241 10.5 18.7 537 1,015.9 11 Good 0.00 0.00 53.6 60.4
5/2/26 - 1200 59.2 75 52.3 SW | 226 8.4 16.3 620 1,016.2 10 Good 0.00 0.00 53.6 60.4
5/2/26 - 1100 58.5 76 51.8 SSW | 213 7.3 14.1 477 1,016.4 11 Good 0.00 0.00 53.6 59.3
5/2/26 - 1000 57.1 79 51.5 SW | 218 6.6 12.9 291 1,016.6 14 Good 0.00 0.00 53.6 58.6
5/2/26 - 0900 55.4 82 50.9 SW | 226 6.0 12.2 101 1,016.7 15 Good 0.00 0.00 53.6 56.3
5/2/26 - 0800 54.6 83 50.6 SW | 214 5.1 10.3 39 1,016.2 13 Good 0.00 0.00 53.6 55.3
5/2/26 - 0700 53.9 85 50.5 SSW | 209 5.1 9.7 8 1,015.9 12 Good 0.00 0.00 53.6 55.3
5/2/26 - 0600 54.1 85 50.8 SSW | 210 5.0 11.9 0 1,015.4 11 Good 0.00 0.00 54.0 55.3
5/2/26 - 0500 54.2 86 51.1 SSW | 213 4.4 8.8 0 1,015.2 12 Good 0.00 0.00 54.1 55.3
5/2/26 - 0400 54.4 86 51.2 SSW | 212 3.6 7.5 0 1,015.3 11 Good 0.00 0.00 54.2 55.3
5/2/26 - 0300 54.5 84 50.7 SW | 220 2.8 6.9 0 1,015.6 12 Good 0.00 0.00 54.2 55.3
5/2/26 - 0200 54.5 85 51.1 SW | 217 3.8 8.5 0 1,016.1 15 Good 0.00 0.00 54.2 55.3
5/2/26 - 0100 53.9 89 51.9 SW | 219 2.7 5.4 0 1,016.6 17 Good 0.00 0.00 47.1 68.2
5/2/26 - 0000 52.1 93 51.2 SSW | 210 3.0 6.0 0 1,016.5 18 Good 0.00 0.00 47.1 68.2
5/1/26 - 2300 52.9 91 51.2 S | 176 2.4 5.4 0 1,016.6 21 Good 0.00 0.00 47.1 68.2
5/1/26 - 2200 54.5 88 52.0 S | 184 2.6 6.0 0 1,016.5 23 Good 0.00 0.00 47.1 68.2
5/1/26 - 2100 57.4 78 51.7 NE | 42 2.7 4.5 0 1,015.7 26 Good 0.00 0.00 47.1 68.2
5/1/26 - 2000 61.1 70 52.2 NNE | 29 3.5 7.2 43 1,014.9 31 Good 0.00 0.00 47.1 68.2
5/1/26 - 1900 65.0 63 53.0 NE | 38 6.3 10.4 237 1,014.4 29 Good 0.00 0.00 47.1 68.2
5/1/26 - 1800 66.7 63 54.9 NE | 42 5.7 9.7 423 1,014.0 30 Good 0.00 0.00 47.1 68.2
5/1/26 - 1700 66.0 67 55.6 NE | 34 5.7 11.4 626 1,014.2 30 Good 0.00 0.00 47.1 68.2
5/1/26 - 1600 66.5 67 56.2 NNE | 31 6.5 12.5 786 1,014.5 30 Good 0.00 0.00 47.1 68.2
5/1/26 - 1500 65.7 68 55.8 NNE | 29 6.6 13.5 880 1,015.0 30 Good 0.00 0.00 47.1 67.5
5/1/26 - 1400 64.1 71 55.5 NNE | 12 6.3 13.4 920 1,015.5 29 Good 0.00 0.00 47.1 66.0
5/1/26 - 1300 64.2 70 55.3 NNE | 26 6.5 14.4 891 1,016.2 31 Good 0.00 0.00 47.1 65.2
5/1/26 - 1200 63.7 69 54.3 NE | 36 5.9 12.0 863 1,016.7 33 Good 0.00 0.00 47.1 64.8
Max 66.7 93 56.2 - 10.5 18.7 920 1,016.7 33 - 0.00 0.00 54.3 68.2
Avg 57.9 77 51.5 - 4.7 9.8 240 1,015.2 17 - 0.00 - - -
Min 52.1 63 48.5 - 0.6 2.8 0 1,013.3 2 - 0.00 0.00 47.1 55.0
Total - - - - - - - - - - 0.00 - - -